This demonstration page uses our WeatherBlox Daily Observations layout. Learn more.

Left ArrowRight Arrow

40.92501, -98.34201

Hourly Observations for January 13, 2015

Temp ( °F °C ) Dew Point ( °F °C ) Humidity (%) Winds ( mph kmh ) Pressure ( in mb ) Visibility ( mi km ) Precip ( " mm )
12:53 am 00:53 Clear 0 -17.8 -4 -20 83 83 Calm 30.77 1042 10 16 0.00 0.00
1:53 am 01:53 Cloudy 2 -16.7 -3 -19.4 80 80 ESE 6 9 30.76 1042 10 16 0.00 0.00
2:53 am 02:53 Mostly Cloudy 2 -16.7 -3 -19.4 80 80 ESE 9 15 30.75 1041 10 16 0.00 0.00
3:53 am 03:53 Mostly Cloudy 2 -16.7 -3 -19.4 80 80 SE 6 9 30.74 1041 10 16 0.00 0.00
4:53 am 04:53 Mostly Clear 1 -17.2 -4 -20 79 79 SE 6 9 30.73 1041 10 16 0.00 0.00
5:53 am 05:53 Partly Cloudy 1 -17.2 -4 -20 79 79 SE 6 9 30.71 1040 10 16 0.00 0.00
6:53 am 06:53 Clear 0 -17.8 -4 -20 83 83 SSE 6 9 30.71 1040 10 16 0.00 0.00
7:53 am 07:53 Clear 0 -17.8 -4 -20 83 83 SE 7 11 30.70 1040 10 16 0.00 0.00
8:53 am 08:53 Cloudy 3 -16.1 -1 -18.3 83 83 S 7 11 30.69 1039 10 16 0.00 0.00
9:53 am 09:53 Cloudy 7 -13.9 1 -17.2 76 76 S 8 13 30.69 1039 10 16 0.00 0.00
10:53 am 10:53 Cloudy 10 -12.2 3 -16.1 73 73 SSW 8 13 30.69 1039 10 16 0.00 0.00
11:53 am 11:53 Cloudy 14 -10 4 -15.6 64 64 SW 8 13 30.66 1038 10 16 0.00 0.00
12:53 pm 12:53 Cloudy 16 -8.9 5 -15 62 62 S 9 15 30.61 1037 10 16 0.00 0.00
1:53 pm 13:53 Cloudy 19 -7.2 5 -15 54 54 S 8 13 30.57 1035 10 16 0.00 0.00
2:53 pm 14:53 Cloudy 22 -5.6 3 -16.1 44 44 S 12 19 30.53 1034 10 16 0.00 0.00
3:53 pm 15:53 Cloudy 23 -5 4 -15.6 44 44 S 13 20 30.52 1034 10 16 0.00 0.00
4:53 pm 16:53 Partly Cloudy 23 -5 4 -15.6 44 44 S 10 17 30.51 1033 10 16 0.00 0.00
5:53 pm 17:53 Mostly Clear 20 -6.7 4 -15.6 50 50 SSW 8 13 30.53 1034 10 16 0.00 0.00
6:53 pm 18:53 Cloudy 21 -6.1 6 -14.4 52 52 S 9 15 30.51 1033 10 16 0.00 0.00
7:53 pm 19:53 Cloudy 22 -5.6 7 -13.9 52 52 SSW 8 13 30.51 1033 10 16 0.00 0.00
8:53 pm 20:53 Mostly Cloudy 21 -6.1 7 -13.9 54 54 SSW 9 15 30.50 1033 10 16 0.00 0.00
9:53 pm 21:53 Mostly Cloudy 21 -6.1 9 -12.8 59 59 SW 9 15 30.48 1032 10 16 0.00 0.00
10:53 pm 22:53 Mostly Cloudy 20 -6.7 8 -13.3 60 60 SW 12 19 30.48 1032 10 16 0.00 0.00
11:53 pm 23:53 Cloudy 21 -6.1 9 -12.8 59 59 SW 13 20 30.45 1031 10 16 0.00 0.00

Powered by AerisWeather